Location: Oroua River
(40.4333°S, 175.4333°E)
Time: 14:11:47
(UTC+00:00)

Cosmos 1371 Rocket - Pass Details

Date: 03 February 2023
Orbit: 754 x 788 km, 74.0° (Epoch: 31 March)

Event Time Altitude Azimuth Distance (km) Brightness Sun altitude
Rises 14:06:01 0° 199° (SSW) 3,261 7.9 -29.0°
Reaches altitude 10° 14:08:25 10° 197° (SSW) 2,332 7.0 -28.8°
Enters shadow 14:13:19 75° 167° (SSE) 809 4.1 -28.4°
